{"data":{"norad_id":65772,"epoch":"2026-09-20T10:52:03.128736Z","epoch_age_seconds":150797,"freshness":"FRESH","line1":"1 65772U 25217L   26263.45281399  .00001906  00000+0  27889-3 0  9996","line2":"2 65772  51.9007 249.3609 0000720  44.1095 315.9925 14.79935442 53893","mean_motion":14.79935442,"eccentricity":7.2e-5,"inclination_deg":51.9007,"raan_deg":249.3609,"arg_perigee_deg":44.1095,"mean_anomaly_deg":315.9925,"bstar":0.00027889,"rev_number":5389,"period_min":97.30154161684,"perigee_km":629.02336852245,"apogee_km":630.03247227099,"semimajor_km":7007.6649203967,"source":"CELESTRAK","updated_at":"2026-09-21T09:00:15.559070Z"}}